Time,TemperatureF,DewpointF,PressureIn,WindDirection,WindDirectionDegrees,WindSpeedMPH,WindSpeedGustMPH,Humidity,HourlyPrecipIn,Conditions,Clouds,dailyrainin,SoftwareType,DateUTC
2013-01-28 00:04:00,74.0,67.0,30.22,East,81,13.0,21.0,79,0.00,,,0.00,,2013-01-28 05:04:00,
2013-01-28 00:12:00,74.0,67.0,30.22,East,81,13.0,21.0,79,0.00,,,0.00,,2013-01-28 05:12:00,
2013-01-28 00:22:00,74.0,67.0,30.22,NE,56,11.0,19.0,79,0.00,,,0.00,,2013-01-28 05:22:00,
2013-01-28 00:32:00,74.0,67.0,30.22,ENE,64,10.0,19.0,78,0.00,,,0.00,,2013-01-28 05:32:00,
2013-01-28 00:42:00,74.0,67.0,30.22,ENE,64,10.0,19.0,78,0.00,,,0.00,,2013-01-28 05:42:00,
2013-01-28 00:52:00,74.0,67.0,30.22,NNE,31,12.0,19.0,78,0.00,,,0.00,,2013-01-28 05:52:00,
2013-01-28 01:02:00,74.0,66.0,30.22,East,85,14.0,22.0,77,0.00,,,0.00,,2013-01-28 06:02:00,
2013-01-28 01:11:00,74.0,66.0,30.22,East,85,14.0,22.0,77,0.00,,,0.00,,2013-01-28 06:11:00,
2013-01-28 01:22:00,74.0,67.0,30.22,ESE,115,13.0,19.0,78,0.00,,,0.00,,2013-01-28 06:22:00,
2013-01-28 01:32:00,74.0,66.0,30.22,ENE,71,12.0,19.0,77,0.00,,,0.00,,2013-01-28 06:32:00,
2013-01-28 01:42:00,74.0,66.0,30.22,ENE,71,12.0,19.0,77,0.00,,,0.00,,2013-01-28 06:42:00,
2013-01-28 01:52:00,74.0,67.0,30.22,ENE,76,13.0,21.0,78,0.00,,,0.00,,2013-01-28 06:52:00,
2013-01-28 02:02:00,74.0,67.0,30.22,ENE,68,13.0,22.0,78,0.00,,,0.00,,2013-01-28 07:02:00,
2013-01-28 02:11:00,74.0,67.0,30.22,ENE,68,13.0,22.0,78,0.00,,,0.00,,2013-01-28 07:11:00,
2013-01-28 02:22:00,74.0,67.0,30.22,ENE,58,11.0,21.0,78,0.00,,,0.00,,2013-01-28 07:22:00,
2013-01-28 02:32:00,74.0,66.0,30.21,ENE,64,12.0,18.0,77,0.00,,,0.00,,2013-01-28 07:32:00,
2013-01-28 02:42:00,74.0,66.0,30.21,ENE,64,12.0,18.0,77,0.00,,,0.00,,2013-01-28 07:42:00,
2013-01-28 02:52:00,74.0,67.0,30.21,East,97,9.0,21.0,78,0.00,,,0.00,,2013-01-28 07:52:00,
2013-01-28 03:01:00,74.0,67.0,30.21,East,83,11.0,18.0,78,0.00,,,0.00,,2013-01-28 08:01:00,
2013-01-28 03:11:00,74.0,67.0,30.21,East,83,11.0,18.0,78,0.00,,,0.00,,2013-01-28 08:11:00,
2013-01-28 03:21:00,74.0,67.0,30.20,ENE,57,11.0,19.0,78,0.00,,,0.00,,2013-01-28 08:21:00,
2013-01-28 03:32:00,73.0,66.0,30.20,ENE,58,10.0,16.0,79,0.00,,,0.00,,2013-01-28 08:32:00,
2013-01-28 03:42:00,73.0,66.0,30.20,ENE,58,10.0,16.0,79,0.00,,,0.00,,2013-01-28 08:42:00,
2013-01-28 03:52:00,74.0,67.0,30.20,ENE,58,10.0,15.0,79,0.00,,,0.00,,2013-01-28 08:52:00,
2013-01-28 04:02:00,74.0,67.0,30.21,NE,43,10.0,16.0,79,0.00,,,0.00,,2013-01-28 09:02:00,
2013-01-28 04:12:00,74.0,67.0,30.21,NE,43,10.0,16.0,79,0.00,,,0.00,,2013-01-28 09:12:00,
2013-01-28 04:22:00,74.0,67.0,30.21,East,83,10.0,18.0,79,0.00,,,0.00,,2013-01-28 09:22:00,
2013-01-28 04:32:00,73.0,66.0,30.20,ENE,68,10.0,18.0,80,0.00,,,0.00,,2013-01-28 09:32:00,
2013-01-28 04:42:00,73.0,66.0,30.20,ENE,68,10.0,18.0,80,0.00,,,0.00,,2013-01-28 09:42:00,
2013-01-28 04:52:00,74.0,67.0,30.20,East,99,12.0,19.0,79,0.00,,,0.00,,2013-01-28 09:52:00,
2013-01-28 05:02:00,73.0,66.0,30.20,ENE,70,10.0,18.0,80,0.00,,,0.00,,2013-01-28 10:02:00,
2013-01-28 05:11:00,73.0,66.0,30.20,ENE,70,10.0,18.0,80,0.00,,,0.00,,2013-01-28 10:11:00,
2013-01-28 05:21:00,73.0,67.0,30.20,ENE,64,11.0,16.0,81,0.00,,,0.00,,2013-01-28 10:21:00,
2013-01-28 05:32:00,73.0,67.0,30.20,East,87,10.0,18.0,81,0.00,,,0.00,,2013-01-28 10:32:00,
2013-01-28 05:42:00,73.0,67.0,30.20,East,87,10.0,18.0,81,0.00,,,0.00,,2013-01-28 10:42:00,
2013-01-28 05:52:00,73.0,67.0,30.21,East,100,10.0,14.0,82,0.00,,,0.00,,2013-01-28 10:52:00,
2013-01-28 06:02:00,73.0,67.0,30.21,East,87,10.0,16.0,81,0.00,,,0.00,,2013-01-28 11:02:00,
2013-01-28 06:11:00,73.0,67.0,30.21,East,87,10.0,16.0,81,0.00,,,0.00,,2013-01-28 11:11:00,
2013-01-28 06:22:00,74.0,67.0,30.21,ENE,74,8.0,17.0,80,0.00,,,0.00,,2013-01-28 11:22:00,
2013-01-28 06:32:00,74.0,67.0,30.22,ESE,104,13.0,18.0,79,0.00,,,0.00,,2013-01-28 11:32:00,
2013-01-28 06:42:00,74.0,67.0,30.22,ESE,104,13.0,18.0,79,0.00,,,0.00,,2013-01-28 11:42:00,
2013-01-28 06:52:00,74.0,67.0,30.22,ENE,76,8.0,15.0,79,0.00,,,0.00,,2013-01-28 11:52:00,
2013-01-28 07:03:00,74.0,67.0,30.22,East,83,11.0,18.0,80,0.00,,,0.00,,2013-01-28 12:03:00,
2013-01-28 07:12:00,74.0,67.0,30.22,East,83,11.0,18.0,80,0.00,,,0.00,,2013-01-28 12:12:00,
2013-01-28 07:23:00,74.0,67.0,30.23,ENE,78,7.0,16.0,80,0.00,,,0.00,,2013-01-28 12:23:00,
2013-01-28 07:33:00,74.0,67.0,30.23,East,80,11.0,16.0,80,0.00,,,0.00,,2013-01-28 12:33:00,
2013-01-28 07:42:00,74.0,67.0,30.23,East,80,11.0,16.0,80,0.00,,,0.00,,2013-01-28 12:42:00,
2013-01-28 07:52:00,74.0,67.0,30.24,ESE,107,8.0,17.0,80,0.00,,,0.00,,2013-01-28 12:52:00,
2013-01-28 08:03:00,74.0,67.0,30.24,ESE,103,10.0,16.0,79,0.00,,,0.00,,2013-01-28 13:03:00,
2013-01-28 08:12:00,74.0,67.0,30.24,ESE,103,10.0,16.0,79,0.00,,,0.00,,2013-01-28 13:12:00,
2013-01-28 08:23:00,74.0,66.0,30.24,ENE,72,11.0,17.0,77,0.00,,,0.00,,2013-01-28 13:23:00,
2013-01-28 08:33:00,75.0,67.0,30.25,ENE,57,12.0,16.0,77,0.00,,,0.00,,2013-01-28 13:33:00,
2013-01-28 08:42:00,75.0,67.0,30.25,ENE,57,12.0,16.0,77,0.00,,,0.00,,2013-01-28 13:42:00,
2013-01-28 08:53:00,75.0,67.0,30.25,East,94,11.0,16.0,76,0.00,,,0.00,,2013-01-28 13:53:00,
2013-01-28 09:03:00,75.0,67.0,30.25,ENE,73,10.0,18.0,75,0.00,,,0.00,,2013-01-28 14:03:00,
2013-01-28 09:12:00,75.0,67.0,30.25,ENE,73,10.0,18.0,75,0.00,,,0.00,,2013-01-28 14:12:00,
2013-01-28 09:23:00,76.0,67.0,30.26,East,79,10.0,18.0,74,0.00,,,0.00,,2013-01-28 14:23:00,
2013-01-28 09:33:00,76.0,67.0,30.27,North,9,10.0,19.0,75,0.00,,,0.00,,2013-01-28 14:33:00,
2013-01-28 09:43:00,76.0,67.0,30.27,North,9,10.0,19.0,75,0.00,,,0.00,,2013-01-28 14:43:00,
2013-01-28 09:53:00,76.0,67.0,30.27,East,89,8.0,16.0,74,0.00,,,0.00,,2013-01-28 14:53:00,
2013-01-28 10:03:00,76.0,67.0,30.27,ESE,119,9.0,17.0,75,0.00,,,0.00,,2013-01-28 15:03:00,
2013-01-28 10:13:00,76.0,67.0,30.27,ESE,119,9.0,17.0,75,0.00,,,0.00,,2013-01-28 15:13:00,
2013-01-28 10:23:00,77.0,68.0,30.28,ENE,65,12.0,18.0,74,0.00,,,0.00,,2013-01-28 15:23:00,
2013-01-28 10:33:00,77.0,68.0,30.28,East,85,10.0,17.0,75,0.00,,,0.00,,2013-01-28 15:33:00,
2013-01-28 10:43:00,77.0,68.0,30.28,East,85,10.0,17.0,75,0.00,,,0.00,,2013-01-28 15:43:00,
2013-01-28 10:53:00,76.0,67.0,30.28,ENE,66,12.0,18.0,74,0.00,,,0.00,,2013-01-28 15:53:00,
2013-01-28 11:04:00,77.0,68.0,30.28,ESE,117,11.0,17.0,75,0.00,,,0.00,,2013-01-28 16:04:00,
2013-01-28 11:12:00,77.0,68.0,30.28,ESE,117,11.0,17.0,75,0.00,,,0.00,,2013-01-28 16:12:00,
2013-01-28 11:22:00,77.0,68.0,30.28,East,90,14.0,22.0,74,0.00,,,0.00,,2013-01-28 16:22:00,
2013-01-28 11:32:00,77.0,68.0,30.28,ENE,73,12.0,18.0,75,0.00,,,0.00,,2013-01-28 16:32:00,
2013-01-28 11:43:00,77.0,68.0,30.28,ENE,73,12.0,18.0,75,0.00,,,0.00,,2013-01-28 16:43:00,
2013-01-28 11:53:00,77.0,68.0,30.27,ENE,76,11.0,17.0,73,0.00,,,0.00,,2013-01-28 16:53:00,
2013-01-28 12:02:00,77.0,68.0,30.27,NE,53,11.0,15.0,74,0.00,,,0.00,,2013-01-28 17:02:00,
2013-01-28 12:12:00,77.0,68.0,30.27,NE,53,11.0,15.0,74,0.00,,,0.00,,2013-01-28 17:12:00,
2013-01-28 12:23:00,77.0,68.0,30.27,ENE,74,10.0,16.0,74,0.00,,,0.00,,2013-01-28 17:23:00,
2013-01-28 12:33:00,77.0,69.0,30.27,NE,45,8.0,16.0,76,0.00,,,0.00,,2013-01-28 17:33:00,
2013-01-28 12:42:00,77.0,69.0,30.27,NE,45,8.0,16.0,76,0.00,,,0.00,,2013-01-28 17:42:00,
2013-01-28 12:53:00,77.0,69.0,30.25,ESE,106,9.0,16.0,76,0.00,,,0.00,,2013-01-28 17:53:00,
2013-01-28 13:03:00,78.0,69.0,30.25,NE,48,11.0,16.0,74,0.00,,,0.00,,2013-01-28 18:03:00,
2013-01-28 13:12:00,78.0,69.0,30.25,NE,48,11.0,16.0,74,0.00,,,0.00,,2013-01-28 18:12:00,
2013-01-28 13:23:00,77.0,68.0,30.24,ENE,76,7.0,18.0,74,0.00,,,0.00,,2013-01-28 18:23:00,
2013-01-28 13:33:00,77.0,68.0,30.23,East,81,9.0,17.0,74,0.00,,,0.00,,2013-01-28 18:33:00,
2013-01-28 13:42:00,77.0,68.0,30.23,East,81,9.0,17.0,74,0.00,,,0.00,,2013-01-28 18:42:00,
2013-01-28 13:53:00,77.0,68.0,30.22,East,83,9.0,16.0,75,0.00,,,0.00,,2013-01-28 18:53:00,
2013-01-28 14:02:00,77.0,68.0,30.22,East,81,9.0,17.0,74,0.00,,,0.00,,2013-01-28 19:02:00,
2013-01-28 14:12:00,77.0,68.0,30.22,East,81,9.0,17.0,74,0.00,,,0.00,,2013-01-28 19:12:00,
2013-01-28 14:22:00,77.0,68.0,30.21,ESE,109,11.0,21.0,73,0.00,,,0.00,,2013-01-28 19:22:00,
2013-01-28 14:33:00,76.0,67.0,30.21,East,93,12.0,19.0,74,0.00,,,0.00,,2013-01-28 19:33:00,
2013-01-28 14:42:00,76.0,67.0,30.21,East,93,12.0,19.0,74,0.00,,,0.00,,2013-01-28 19:42:00,
2013-01-28 14:53:00,76.0,68.0,30.21,NE,47,11.0,15.0,76,0.00,,,0.00,,2013-01-28 19:53:00,
2013-01-28 15:03:00,77.0,68.0,30.20,ENE,58,10.0,18.0,75,0.00,,,0.00,,2013-01-28 20:03:00,
2013-01-28 15:12:00,77.0,68.0,30.20,ENE,58,10.0,18.0,75,0.00,,,0.00,,2013-01-28 20:12:00,
2013-01-28 15:22:00,77.0,68.0,30.20,NE,49,11.0,15.0,75,0.00,,,0.00,,2013-01-28 20:22:00,
2013-01-28 15:33:00,77.0,68.0,30.20,East,86,10.0,18.0,74,0.00,,,0.00,,2013-01-28 20:33:00,
2013-01-28 15:42:00,77.0,68.0,30.20,East,86,10.0,18.0,74,0.00,,,0.00,,2013-01-28 20:42:00,
2013-01-28 15:53:00,76.0,68.0,30.19,East,99,11.0,19.0,76,0.00,,,0.00,,2013-01-28 20:53:00,
2013-01-28 16:03:00,76.0,68.0,30.19,East,87,8.0,18.0,76,0.00,,,0.00,,2013-01-28 21:03:00,
2013-01-28 16:12:00,76.0,68.0,30.19,East,87,8.0,18.0,76,0.00,,,0.00,,2013-01-28 21:12:00,
2013-01-28 16:23:00,76.0,67.0,30.19,ESE,110,11.0,17.0,75,0.00,,,0.00,,2013-01-28 21:23:00,
2013-01-28 16:33:00,76.0,67.0,30.19,ENE,76,11.0,16.0,75,0.00,,,0.00,,2013-01-28 21:33:00,
2013-01-28 16:43:00,76.0,67.0,30.19,ENE,76,11.0,16.0,75,0.00,,,0.00,,2013-01-28 21:43:00,
2013-01-28 16:53:00,76.0,68.0,30.19,NE,54,10.0,16.0,76,0.00,,,0.00,,2013-01-28 21:53:00,
2013-01-28 17:02:00,76.0,68.0,30.19,East,81,10.0,18.0,76,0.00,,,0.00,,2013-01-28 22:02:00,
2013-01-28 17:12:00,76.0,68.0,30.19,East,81,10.0,18.0,76,0.00,,,0.00,,2013-01-28 22:12:00,
2013-01-28 17:23:00,75.0,67.0,30.20,ENE,70,8.0,15.0,77,0.00,,,0.00,,2013-01-28 22:23:00,
2013-01-28 17:33:00,75.0,67.0,30.20,ENE,77,9.0,16.0,77,0.00,,,0.00,,2013-01-28 22:33:00,
2013-01-28 17:42:00,75.0,67.0,30.20,ENE,77,9.0,16.0,77,0.00,,,0.00,,2013-01-28 22:42:00,
2013-01-28 17:52:00,75.0,68.0,30.20,ENE,75,10.0,14.0,78,0.00,,,0.00,,2013-01-28 22:52:00,
2013-01-28 18:02:00,75.0,68.0,30.20,ENE,77,9.0,17.0,79,0.00,,,0.00,,2013-01-28 23:02:00,
2013-01-28 18:12:00,75.0,68.0,30.20,ENE,77,9.0,17.0,79,0.00,,,0.00,,2013-01-28 23:12:00,
2013-01-28 18:22:00,75.0,68.0,30.20,NE,55,8.0,14.0,79,0.00,,,0.00,,2013-01-28 23:22:00,
2013-01-28 18:32:00,74.0,67.0,30.20,ENE,70,9.0,18.0,78,0.00,,,0.00,,2013-01-28 23:32:00,
2013-01-28 18:42:00,74.0,67.0,30.20,ENE,70,9.0,18.0,78,0.00,,,0.00,,2013-01-28 23:42:00,
2013-01-28 18:53:00,75.0,68.0,30.20,ESE,108,8.0,16.0,78,0.00,,,0.00,,2013-01-28 23:53:00,
2013-01-28 19:02:00,75.0,68.0,30.20,ENE,59,10.0,17.0,78,0.00,,,0.00,,2013-01-29 00:02:00,
2013-01-28 19:12:00,75.0,68.0,30.20,ENE,59,10.0,17.0,78,0.00,,,0.00,,2013-01-29 00:12:00,
2013-01-28 19:22:00,75.0,68.0,30.20,NE,54,10.0,15.0,79,0.00,,,0.00,,2013-01-29 00:22:00,
2013-01-28 19:32:00,75.0,68.0,30.21,ENE,62,9.0,17.0,79,0.00,,,0.00,,2013-01-29 00:32:00,
2013-01-28 19:42:00,75.0,68.0,30.21,ENE,62,9.0,17.0,79,0.00,,,0.00,,2013-01-29 00:42:00,
2013-01-28 19:52:00,75.0,68.0,30.21,ESE,112,9.0,15.0,80,0.00,,,0.00,,2013-01-29 00:52:00,
2013-01-28 20:02:00,75.0,68.0,30.21,East,81,9.0,16.0,80,0.00,,,0.00,,2013-01-29 01:02:00,
2013-01-28 20:12:00,75.0,68.0,30.21,East,81,9.0,16.0,80,0.00,,,0.00,,2013-01-29 01:12:00,
2013-01-28 20:23:00,75.0,68.0,30.21,ENE,65,8.0,15.0,80,0.00,,,0.00,,2013-01-29 01:23:00,
2013-01-28 20:32:00,75.0,69.0,30.21,ENE,72,8.0,15.0,81,0.00,,,0.00,,2013-01-29 01:32:00,
2013-01-28 20:42:00,75.0,69.0,30.21,ENE,72,8.0,15.0,81,0.00,,,0.00,,2013-01-29 01:42:00,
2013-01-28 20:53:00,75.0,68.0,30.21,ENE,62,10.0,16.0,80,0.00,,,0.00,,2013-01-29 01:53:00,
2013-01-28 21:02:00,75.0,68.0,30.21,NE,47,10.0,15.0,80,0.00,,,0.00,,2013-01-29 02:02:00,
2013-01-28 21:12:00,75.0,68.0,30.21,NE,47,10.0,15.0,80,0.00,,,0.00,,2013-01-29 02:12:00,
2013-01-28 21:22:00,75.0,69.0,30.21,East,97,9.0,14.0,81,0.00,,,0.00,,2013-01-29 02:22:00,
2013-01-28 21:33:00,75.0,68.0,30.21,East,79,10.0,15.0,80,0.00,,,0.00,,2013-01-29 02:33:00,
2013-01-28 21:42:00,75.0,68.0,30.21,East,79,10.0,15.0,80,0.00,,,0.00,,2013-01-29 02:42:00,
2013-01-28 21:53:00,75.0,68.0,30.21,East,81,9.0,17.0,79,0.00,,,0.00,,2013-01-29 02:53:00,
2013-01-28 22:03:00,75.0,68.0,30.21,East,91,8.0,16.0,79,0.00,,,0.00,,2013-01-29 03:03:00,
2013-01-28 22:12:00,75.0,68.0,30.21,East,91,8.0,16.0,79,0.00,,,0.00,,2013-01-29 03:12:00,
2013-01-28 22:22:00,75.0,68.0,30.21,East,101,9.0,16.0,80,0.00,,,0.00,,2013-01-29 03:22:00,
2013-01-28 22:32:00,75.0,68.0,30.21,East,94,10.0,16.0,80,0.00,,,0.00,,2013-01-29 03:32:00,
2013-01-28 22:42:00,75.0,68.0,30.21,East,94,10.0,16.0,80,0.00,,,0.00,,2013-01-29 03:42:00,
2013-01-28 22:53:00,75.0,68.0,30.21,ENE,72,9.0,15.0,80,0.00,,,0.00,,2013-01-29 03:53:00,
2013-01-28 23:02:00,75.0,68.0,30.21,ESE,105,10.0,17.0,80,0.00,,,0.00,,2013-01-29 04:02:00,
2013-01-28 23:12:00,75.0,68.0,30.21,ESE,105,10.0,17.0,80,0.00,,,0.00,,2013-01-29 04:12:00,
2013-01-28 23:22:00,75.0,68.0,30.21,ESE,118,11.0,16.0,79,0.00,,,0.00,,2013-01-29 04:22:00,
2013-01-28 23:32:00,75.0,68.0,30.21,NE,49,8.0,18.0,79,0.00,,,0.00,,2013-01-29 04:32:00,
2013-01-28 23:42:00,75.0,68.0,30.21,NE,49,8.0,18.0,79,0.00,,,0.00,,2013-01-29 04:42:00,
2013-01-28 23:52:00,75.0,69.0,30.20,East,97,9.0,16.0,81,0.00,,,0.00,,2013-01-29 04:52:00,